Regional Weather Roundup
Issued by NWS

Home | Current Version | Previous Version | Text Only | Print | Product List | Glossary On
Versions: 1 2 3 4 5 6 7 8 9 10 11 12 13 14 15 16 17 18 19 20 21 22 23 24 25 26 27 28 29 30 31 32 33 34 35 36 37 38 39 40 41 42 43 44 45 46 47 48 49 50
000
ASCA42 TJSJ 051610
RWRPR
PUERTO RICO/U.S. VIRGIN ISLANDS HOURLY WEATHER ROUNDUP
NATIONAL WEATHER SERVICE SAN JUAN PR
1200 PM AST THU MAR 05 2015

PRZ001-004-051700-
PUERTO RICO

CITY           SKY/WX    TMP DP  RH WIND       PRES   REMARKS
SAN JUAN LMM   MOSUNNY   84  70  61 E14G24    30.13F
AGUADILLA      PTSUNNY   79  66  65 E21G30    30.14F
CEIBA          SUNNY     82  66  57 E12G23    30.16F
$$

PRZ006-007-051700-
U.S. VIRGIN ISLANDS

CITY           SKY/WX    TMP DP  RH WIND       PRES   REMARKS
$$

HOURLY WEATHER ROUNDUP FOR THE NEWS MEDIA

CITY           SKY/WX    TMP DP  RH WIND       PRES   REMARKS
ORLANDO        MOSUNNY   79  64  60 SW16      30.13F
NEW YORK       LGT SNOW  27  23  85 N13       30.13F VSB 3/4 WCI  16
NEWARK         SNOW      27  25  92 N15       30.13F VSB 1/4 WCI  15
CHICAGO        MOSUNNY   13  -5  44 NW10      30.45F WCI   0
HARTFORD       SNOW      27  25  92 NW10G20   30.07R VSB 1/2 WCI  17
BOSTON         CLOUDY    31   8  38 NW12      30.06R WCI  22
DALLAS         MOSUNNY   30  18  59 N10       30.61R WCI  21
PHILADELPHIA   HVY SNOW  29  27  92 N15       30.16R VSB 1/4 WCI  18
LOS ANGELES    MOSUNNY   56  32  40 E3        30.26R
WASHINGTON DC  SNOW      28  26  92 N10       30.18R VSB 1/2 WCI  19


USA.gov is the U.S. government's official web portal to all federal, state and local government web resources and services.